When you browse on this site, cookies collect data to enhance your experience and personalize the content and advertising you see.
Visit our Privacy Policy to learn more. By continuing to use the site, you agree to this use of cookies and data.
  • In Lithuania
  • List of Countries
  • For 7 days
  • Water Temperature
  • Satellite Maps
  • Weather Map
  • Weather Widgets
  • user-avatar
    Login

    Hourly Weather San Luis

    Today, 18 February, Monday

    Time Temperature Precipitation Wind Pressure Humidity
    00:00 +26°C° 0 mm 7 mps 695 mmHg 47%
    01:00 +26°C° 0 mm 8 mps 695 mmHg 50%
    02:00 +26°C° 0 mm 9 mps 694 mmHg 53%
    03:00 +26°C° 0 mm 9 mps 694 mmHg 53%
    04:00 +24°C° 0 mm 9 mps 694 mmHg 54%
    05:00 +24°C° 0 mm 9 mps 694 mmHg 55%
    06:00 +26°C° 0 mm 9 mps 694 mmHg 52%
    07:00 +27°C° 0 mm 9 mps 695 mmHg 49%
    08:00 +28°C° 0 mm 9 mps 695 mmHg 46%
    09:00 +30°C° 0 mm 7 mps 696 mmHg 41%
    10:00 +32°C° 0 mm 5 mps 696 mmHg 36%
    11:00 +34°C° 0 mm 3 mps 696 mmHg 31%
    12:00 +35°C° 0 mm 3 mps 696 mmHg 28%
    13:00 +36°C° 0 mm 2 mps 696 mmHg 26%
    14:00 +36°C° 0 mm 1 mps 696 mmHg 24%
    15:00 +36°C° 0 mm 1 mps 695 mmHg 23%
    16:00 +36°C° 0 mm 1 mps 695 mmHg 22%
    17:00 +36°C° 0 mm 1 mps 694 mmHg 21%
    18:00 +34°C° 0 mm 1 mps 694 mmHg 25%
    19:00 +31°C° 0 mm 2 mps 694 mmHg 29%
    20:00 +29°C° 0 mm 2 mps 694 mmHg 33%
    21:00 +28°C° 0 mm 3 mps 694 mmHg 35%
    22:00 +28°C° 0 mm 3 mps 695 mmHg 37%
    23:00 +27°C° 0 mm 3 mps 695 mmHg 39%

    Tomorrow, 19 February, Tuesday

    Time Temperature Precipitation Wind Pressure Humidity
    00:00 +27°C° 0 mm 3 mps 695 mmHg 39%
    01:00 +27°C° 0 mm 3 mps 695 mmHg 39%
    02:00 +27°C° 0 mm 4 mps 695 mmHg 39%
    03:00 +27°C° 0 mm 4 mps 695 mmHg 38%
    04:00 +26°C° 0 mm 4 mps 695 mmHg 37%
    05:00 +26°C° 0 mm 4 mps 695 mmHg 36%
    06:00 +28°C° 0 mm 5 mps 695 mmHg 36%
    07:00 +29°C° 0 mm 6 mps 696 mmHg 36%
    08:00 +30°C° 0 mm 7 mps 696 mmHg 37%
    09:00 +33°C° 0 mm 6 mps 697 mmHg 33%
    10:00 +35°C° 0 mm 5 mps 697 mmHg 29%
    11:00 +36°C° 0 mm 4 mps 697 mmHg 25%
    12:00 +37°C° 0 mm 4 mps 696 mmHg 24%
    13:00 +38°C° 0 mm 4 mps 696 mmHg 23%
    14:00 +38°C° 0 mm 4 mps 695 mmHg 21%
    15:00 +38°C° 0 mm 3 mps 694 mmHg 21%
    16:00 +38°C° 0 mm 3 mps 694 mmHg 21%
    17:00 +38°C° 0 mm 2 mps 693 mmHg 21%
    18:00 +36°C° 0.1 mm 2 mps 693 mmHg 25%
    19:00 +32°C° 0.1 mm 2 mps 693 mmHg 28%
    20:00 +30°C° 0.1 mm 2 mps 692 mmHg 32%
    21:00 +30°C° 0 mm 3 mps 693 mmHg 32%
    22:00 +29°C° 0 mm 3 mps 693 mmHg 32%
    23:00 +29°C° 0 mm 4 mps 694 mmHg 32%

    Day after tomorrow, 20 February, Wednesday

    Time Temperature Precipitation Wind Pressure Humidity
    00:00 +29°C° 0 mm 5 mps 694 mmHg 32%
    01:00 +29°C° 0 mm 6 mps 694 mmHg 32%
    02:00 +29°C° 0 mm 8 mps 694 mmHg 33%
    03:00 +29°C° 0 mm 8 mps 694 mmHg 35%
    04:00 +29°C° 0 mm 9 mps 694 mmHg 36%
    05:00 +29°C° 0 mm 10 mps 693 mmHg 38%
    06:00 +31°C° 0 mm 10 mps 694 mmHg 37%
    07:00 +32°C° 0 mm 10 mps 694 mmHg 36%
    08:00 +32°C° 0 mm 11 mps 695 mmHg 36%
    09:00 +34°C° 0 mm 10 mps 695 mmHg 32%
    10:00 +37°C° 0 mm 9 mps 695 mmHg 28%
    11:00 +39°C° 0 mm 8 mps 696 mmHg 24%
    12:00 +40°C° 0 mm 8 mps 695 mmHg 23%
    13:00 +41°C° 0 mm 8 mps 694 mmHg 21%
    14:00 +41°C° 0 mm 7 mps 694 mmHg 19%
    15:00 +41°C° 0 mm 7 mps 693 mmHg 19%
    16:00 +41°C° 0 mm 7 mps 692 mmHg 18%
    17:00 +41°C° 0 mm 6 mps 692 mmHg 18%
    18:00 +38°C° 0 mm 6 mps 692 mmHg 21%
    19:00 +35°C° 0 mm 5 mps 692 mmHg 25%
    20:00 +32°C° 0 mm 4 mps 691 mmHg 28%
    21:00 +32°C° 0 mm 4 mps 692 mmHg 30%
    22:00 +30°C° 0 mm 5 mps 692 mmHg 31%
    23:00 +30°C° 0 mm 5 mps 693 mmHg 33%

    21 February, Thursday

    Time Temperature Precipitation Wind Pressure Humidity
    00:00 +30°C° 0 mm 5 mps 693 mmHg 35%
    01:00 +29°C° 0 mm 6 mps 693 mmHg 38%
    02:00 +29°C° 0 mm 6 mps 693 mmHg 40%
    03:00 +28°C° 0 mm 5 mps 693 mmHg 45%
    04:00 +27°C° 0 mm 4 mps 693 mmHg 49%
    05:00 +25°C° 0 mm 4 mps 693 mmHg 53%
    06:00 +26°C° 0 mm 4 mps 694 mmHg 53%
    07:00 +27°C° 0 mm 4 mps 695 mmHg 53%
    08:00 +27°C° 0 mm 4 mps 696 mmHg 53%
    09:00 +29°C° 0 mm 4 mps 696 mmHg 47%
    10:00 +33°C° 0 mm 3 mps 697 mmHg 40%
    11:00 +35°C° 0 mm 3 mps 697 mmHg 34%
    12:00 +36°C° 0 mm 3 mps 697 mmHg 33%
    13:00 +36°C° 0 mm 4 mps 696 mmHg 33%
    14:00 +37°C° 0 mm 5 mps 696 mmHg 32%
    15:00 +36°C° 0 mm 5 mps 696 mmHg 33%
    16:00 +36°C° 0 mm 6 mps 695 mmHg 35%
    17:00 +36°C° 0 mm 7 mps 695 mmHg 36%
    18:00 +34°C° 0.1 mm 7 mps 695 mmHg 41%
    19:00 +32°C° 0.1 mm 8 mps 695 mmHg 47%
    20:00 +29°C° 0.1 mm 8 mps 696 mmHg 52%
    21:00 +28°C° 0.2 mm 8 mps 696 mmHg 60%
    22:00 +26°C° 0.2 mm 9 mps 696 mmHg 69%
    23:00 +24°C° 0.2 mm 9 mps 697 mmHg 77%

    22 February, Friday

    Time Temperature Precipitation Wind Pressure Humidity
    00:00 +23°C° 1.7 mm 8 mps 696 mmHg 79%
    01:00 +23°C° 1.7 mm 8 mps 696 mmHg 81%
    02:00 +22°C° 1.7 mm 7 mps 696 mmHg 82%
    03:00 +22°C° 0.4 mm 7 mps 696 mmHg 82%
    04:00 +22°C° 0.4 mm 7 mps 696 mmHg 82%
    05:00 +22°C° 0.4 mm 7 mps 696 mmHg 82%
    06:00 +23°C° 0.1 mm 6 mps 697 mmHg 77%
    07:00 +24°C° 0.1 mm 6 mps 698 mmHg 73%
    08:00 +26°C° 0.1 mm 5 mps 698 mmHg 68%
    09:00 +28°C° 0.1 mm 5 mps 698 mmHg 63%
    10:00 +29°C° 0.1 mm 5 mps 698 mmHg 58%
    11:00 +32°C° 0.1 mm 6 mps 698 mmHg 53%
    12:00 +32°C° 0.2 mm 6 mps 698 mmHg 54%
    13:00 +32°C° 0.2 mm 7 mps 697 mmHg 55%
    14:00 +32°C° 0.2 mm 8 mps 697 mmHg 56%
    15:00 +31°C° 0.1 mm 8 mps 696 mmHg 59%
    16:00 +29°C° 0.1 mm 8 mps 696 mmHg 62%
    17:00 +28°C° 0.1 mm 8 mps 695 mmHg 65%
    18:00 +27°C° 0 mm 8 mps 696 mmHg 69%
    19:00 +26°C° 0 mm 7 mps 696 mmHg 72%
    20:00 +24°C° 0 mm 7 mps 696 mmHg 76%
    21:00 +24°C° 0 mm 6 mps 696 mmHg 76%
    22:00 +25°C° 0 mm 5 mps 696 mmHg 77%
    23:00 +23°C° 0 mm 4 mps 696 mmHg 78%

    23 February, Saturday

    Time Temperature Precipitation Wind Pressure Humidity
    00:00 +23°C° 0 mm 4 mps 696 mmHg 78%
    01:00 +22°C° 0 mm 3 mps 695 mmHg 79%
    02:00 +23°C° 0 mm 2 mps 694 mmHg 79%
    03:00 +23°C° 0 mm 2 mps 694 mmHg 81%
    04:00 +21°C° 0 mm 2 mps 694 mmHg 82%
    05:00 +22°C° 0 mm 1 mps 693 mmHg 84%
    06:00 +24°C° 0.1 mm 1 mps 693 mmHg 77%
    07:00 +25°C° 0.1 mm 1 mps 694 mmHg 71%
    08:00 +27°C° 0.1 mm 2 mps 694 mmHg 64%
    09:00 +28°C° 0.2 mm 2 mps 694 mmHg 59%
    10:00 +30°C° 0.2 mm 3 mps 694 mmHg 54%
    11:00 +33°C° 0.2 mm 3 mps 694 mmHg 49%
    12:00 +33°C° 0.4 mm 3 mps 693 mmHg 46%
    13:00 +34°C° 0.4 mm 3 mps 693 mmHg 42%
    14:00 +35°C° 0.4 mm 3 mps 692 mmHg 39%
    15:00 +34°C° 0.1 mm 4 mps 691 mmHg 44%
    16:00 +33°C° 0.1 mm 6 mps 691 mmHg 50%
    17:00 +32°C° 0.1 mm 7 mps 690 mmHg 56%
    18:00 +29°C° 0.5 mm 7 mps 690 mmHg 65%
    19:00 +27°C° 0.5 mm 6 mps 691 mmHg 73%
    20:00 +25°C° 0.5 mm 5 mps 691 mmHg 82%
    21:00 +25°C° 0.5 mm 5 mps 691 mmHg 84%
    22:00 +23°C° 0.5 mm 5 mps 691 mmHg 86%
    23:00 +23°C° 0.5 mm 4 mps 692 mmHg 87%
    Show more